Torna al catalogo

STARLINK-30975

AttivoComunicazioniVLEO
NORAD 58446·PAYLOAD·🇺🇸 United States

Lanciato Nov 28, 2023 da Cape Canaveral Space Force Station

Loading…

Prossimi Passaggi (prossime 24 ore)

TLE

AggiornatoSource: CelesTrak SupGP

Epoca: Sep 15, 2026, 02:43 UTC

1 58446C 23183K   26258.11368056 -.00023482  00000+0 -85029-3 0  2582
2 58446  43.0040  51.6388 0001802 272.8752 194.0356 15.27598074    12

Traccia STARLINK-30975 in tempo reale con AllMySat

Download on the App Store